EHI
0 0 0 0 0 0 0 0 0 0 0 0 0 0 0 0 0 0 0 0 0 0 0 0 0 0 0 0 0 0 0 0 0 0 0 0 0 0 0 0 0 0 0
0 0 0 0 0 0 0 0 0 0 0 0 0 0 0 0 0 0 0 0 0 0 0 0 0 0 0 0 0 0 0 0 0 0 0 0 0 0 0 0 0 0 0
0 0 0 0 0 0 0 0 0 0 0 0 0 0 0 0 0 0 0 0 0 0 0 0 0 0 0 0 0 0 0 0 0 0 0 0 0 0 0 0 0 0 0
0 0 0 0 0 0 0 0 0 0 0 0 0 0 0 0 0 0 0 0 0 0 0 0 0 0 0 0 0 0 0 0 0 0 0 0 0 0 0 0 0 0 0
0 0 0 0 0 0 0 0 0 0 0 0 0 0 0 0 0 0 0 0 0 0 0 0 0 0 0 0 0 0 0 0 0 0 0 0 0 0 0 0 0 0 0
0 0 0 0 0 0 0 0 0 0 0 0 0 0 0 0 0 0 0 0 0 0 0 0 0 0 0 0 0 0 0 0 0 0 0 0 0 0 0 0 0 0 0
0 0 0 0 0 0 0 0 0 0 0 0 0 0 0 0 0 0 0 0 0 0 0 0 0 0 0 0 0 0 0 0 0 0 0 0 0 0 0 0 0 0 0
0 0 0 0 0 0 0 0 0 0 0 0 0 0 0 0 0 0 0 0 0 0 0 0 0 0 0 0 0 0 0 0 0 0 0 0 0 0 0 0 0 0 0
0 0 0 0 0 0 0 0 0 0 0 0 0 0 0 0 0 0 0 0 0 0 0 0 0 0 0 0 0 0 0 0 0 0 0 0 0 0 0 0 0 0 0
0 0 0 0 0 0 0 0 0 0 0 0 0 0 0 0 0 0 0 0 0 0 0 0 0 0 0 0 0 0 0 0 0 0 0 0 0 0 0 0 0 0 0
0 0 0 0 0 0 0 0 0 0 0 0 0 0 0 0 0 0 0 0 0 0 0 0 0 0 0 0 0 0 0 0 0 0 0 0 0 0 0 0 0 0 0
0 0 0 0 0 0 0 0 0 0 0 0 0 0 0 0 0 0 0 0 0 0 0 0 0 0 0 0 0 0 0 0 0 0 0 0 0 0 0 0 0 0 0
0 0 0 0 0 0 0 0 0 0 0 0 0 0 0 0 0 0 0 0 0 0 0 0 0 0 0 0 0 0 0 0 0 0 0 0 0 0 0 0 0 0 0
0 0 0 0 0 0 0 0 0 0 0 0 0 0 0 0 0 0 0 0 0 0 0 0 0 0 0 0 0 0 0 0 0 0 0 0 0 0 0 0 0 0 0
0 0 0 0 0 0 0 0 0 0 0 0 0 0 0 0 0 0 0 0 0 0 0 0 0 0 0 0 0 0 0 0 0 0 0 0 0 0 0 0 0 0 0
0 0 0 0 0 0 0 0 0 0 0 0 0 0 0 0 0 0 0 0 0 0 0 0 0 0 0 0 0 0 0 0 0 0 0 0 0 0 0 0 0 0 0
0 0 0 0 0 0 0 0 0 0 0 0 0 0 0 0 0 0 0 0 0 0 0 0 0 0 0 0 0 0 0 0 0 0 0 0 0 0 0 0 0 0 0
0 0 0 0 0 0 0 0 0 0 0 0 0 0 0 0 0 0 0 0 0 0 0 0 0 0 0 0 0 0 0 0 0 0 0 0 0 0 0 0 0 0 0
0 0 0 0 0 0 0 0 0 0 0 0 0 0 0 0 0 0 0 0 0 0 0 0 0 0 0 0 0 0 0 0 0 0 0 0 0 0 0 0 0 0 0
0 0 0 0 0 0 0 0 0 0 0 0 0 0 0 0 0 0 0 0 0 0 0 0 0 0 0 0 0 0 0 0 0 0 0 0 0 0 0 0 0 0 0
0 0 0 0 0 0 0 0 0 0 0 0 0 0 0 0 0 0 0 0 0 0 0 0 0 0 0 0 0 0 0 0 0 0 0 0 0 0 0 0 0 0 0
0 0 0 0 0 0 0 0 0 0 0 0 0 0 0 0 0 0 0 0 0 0 0 0 0 0 0 0 0 0 0 0 0 0 0 0 0 0 0 0 0 0 0
0 0 0 0 0 0 0 0 0 0 0 0 0 0 0 0 0 0 0 0 0 0 0 0 0 0 0 0 0 0 0 0 0 0 0 0 0 0 0 0 0 0 0
0 0 0 0 0 0 0 0 0 0 0 0 0 0 0 0 0 0 0 0 0 0 0 0 0 0 0 0 0 0 0 0 0 0 0 0 0 0 0 0 0 0 0
0 0 0 0 0 0 0 0 0 0 0 0 0 0 0 0 0 0 0 0 0 0 0 0 0 0 0 0 0 0 0 0 0 0 0 0 0 0 0 0 0 0 0
0 0 0 0 0 0 0 0 0 0 0 0 0 0 0 0 0 0 0 0 0 0 0 0 0 0 0 0 0 0 0 0 0 0 0 0 0 0 0 0 0 0 0
Wind_Speed
6 5 5 4 4 4 4 3 3 2 3 3 3 4 4 3 3 4 4 4 5 4 4 5 4 3 3 3 3 3 3 3 3 1 2 2 3 4 5 4 4 5 5
6 5 5 5 4 4 4 3 4 3 3 3 4 4 3 3 3 4 4 4 4 4 4 4 4 3 4 3 3 3 2 2 3 1 2 3 3 3 4 4 4 5 4
6 6 5 5 5 5 4 4 4 4 3 3 4 4 3 3 3 3 4 4 4 3 3 3 3 4 3 2 3 3 2 3 3 2 1 2 2 3 3 4 4 4 5
7 7 6 6 6 5 5 5 5 4 4 4 3 3 3 3 3 4 4 4 4 3 3 3 2 2 2 2 2 2 3 3 3 3 2 2 2 3 2 3 4 4 4
8 7 7 6 5 5 5 5 4 4 4 4 4 3 3 3 3 4 4 4 4 3 3 2 2 3 3 2 2 2 3 3 2 2 2 2 2 2 2 2 2 3 3
9 8 6 6 6 6 5 5 5 4 4 4 4 4 3 2 6 7 5 4 3 3 3 2 2 3 4 5 5 5 4 3 2 2 1 0 1 1 1 1 1 2 3
8 7 7 7 7 6 6 6 5 5 4 4 4 4 3 3 6 7 7 5 4 3 2 2 2 2 3 3 5 6 5 4 3 4 2 2 1 2 0 1 1 1 1
8 8 7 8 7 6 6 6 5 4 4 4 4 4 3 3 6 7 8 5 4 3 2 2 2 1 1 3 3 3 3 2 1 1 2 2 2 2 2 2 1 0 2
9 9 9 9 8 8 7 6 5 4 4 3 3 4 4 3 5 8 8 4 3 2 1 1 2 1 2 4 4 3 2 2 2 2 1 1 1 1 1 2 1 1 1
10 9 9 9 9 9 8 6 4 4 4 4 3 3 4 3 5 8 9 4 3 2 1 0 2 2 3 3 3 3 1 1 1 2 3 4 3 3 2 1 1 1 0
8 8 8 8 9 8 7 5 5 5 5 4 3 2 2 3 4 6 8 4 4 3 2 1 2 3 3 3 3 3 3 2 1 1 1 2 2 2 2 1 1 2 2
7 8 8 8 7 6 7 6 5 6 6 4 3 2 1 2 3 5 7 7 6 4 3 3 3 4 3 3 2 3 3 2 1 1 1 1 1 2 2 2 1 1 2
7 7 7 7 6 6 7 7 6 5 5 4 4 4 3 2 2 5 6 7 8 4 3 5 5 4 3 1 1 2 2 2 1 1 1 2 2 2 2 2 2 1 2
8 7 6 7 6 6 5 6 6 7 6 5 5 5 3 2 3 3 3 3 5 4 2 3 3 3 2 1 0 0 1 2 2 2 2 2 1 1 1 1 1 1 2
6 6 6 6 7 6 5 5 7 7 8 8 7 6 6 5 7 9 6 5 4 4 4 2 1 1 1 1 1 1 1 1 2 2 2 2 1 1 2 1 1 1 1
6 5 5 5 5 5 5 3 3 4 7 9 8 7 6 7 7 10 11 10 9 9 6 3 3 3 3 3 3 2 2 3 3 3 2 2 2 2 2 2 1 2 3
6 6 5 5 5 5 5 5 3 1 3 6 8 9 8 8 8 9 9 9 9 10 4 3 4 4 4 4 4 4 4 3 3 3 3 4 3 3 3 3 3 3 3
5 6 5 5 5 5 6 5 5 5 3 2 4 7 9 8 8 8 8 6 4 4 4 5 5 5 5 5 4 4 4 4 3 4 4 4 4 4 4 4 4 4 4
4 4 4 4 4 4 4 4 4 4 3 2 1 2 5 6 6 7 8 5 5 5 5 5 5 5 5 5 5 5 5 4 4 4 4 5 5 4 5 5 5 6 5
3 5 5 4 4 4 3 4 4 4 3 3 3 3 3 3 3 3 4 4 5 5 5 6 5 5 5 5 5 4 4 5 5 5 5 5 5 5 6 6 5 5 5
3 3 5 4 3 4 4 4 4 4 4 4 4 4 7 5 5 5 5 5 5 6 6 5 5 5 5 5 5 5 6 5 5 5 5 5 5 5 5 5 5 5 5
3 3 3 3 3 3 3 3 4 4 4 4 3 3 7 4 4 4 5 5 5 5 5 5 5 5 5 5 5 5 5 6 5 5 5 5 4 5 5 5 5 5 5
3 3 3 2 2 3 3 2 3 3 3 3 3 2 3 4 4 4 5 5 4 4 4 4 4 4 4 5 5 5 6 6 6 5 5 5 4 5 5 5 6 6 6
3 3 3 2 2 2 3 3 2 2 2 2 2 3 3 4 4 4 4 4 4 4 4 4 5 6 7 5 4 5 5 5 4 4 6 5 5 5 5 5 6 7 7
2 2 2 2 2 2 2 2 2 2 2 2 2 2 2 2 3 3 3 3 3 3 4 4 4 5 6 7 6 5 7 8 7 5 4 5 6 6 6 6 6 7 7
2 2 2 2 2 2 2 2 2 2 2 2 2 2 2 2 2 2 2 2 2 2 3 3 4 5 5 5 6 7 8 8 8 8 5 4 5 6 6 6 8 7 8
Wind_Direction
164 160 151 156 154 147 146 153 151 137 127 116 108 98 88 78 79 83 77 75 76 64 60 70 62 57 63 54 61 68 68 92 110 351 338 344 8 12 5 12 28 30 24
164 156 155 152 150 152 156 156 149 144 138 130 117 106 99 92 91 95 91 83 84 76 66 73 66 72 66 57 66 69 68 75 112 95 0 358 4 355 358 13 21 26 24
156 153 153 156 160 164 162 154 146 142 138 130 123 120 115 110 104 102 104 97 88 81 77 81 78 85 74 66 71 71 65 66 75 100 33 356 352 354 5 9 16 10 15
158 159 166 173 172 168 158 152 149 145 144 142 137 132 129 122 118 115 109 103 94 82 76 82 87 100 111 103 90 87 88 76 69 74 50 6 353 342 15 11 5 5 6
162 169 179 173 161 154 151 151 146 145 148 144 135 127 128 134 144 137 127 120 111 95 74 70 82 105 118 121 118 122 108 92 77 69 45 19 358 1 0 342 1 344 357
170 178 171 160 159 161 159 153 147 146 142 140 146 146 152 163 161 155 142 129 124 118 103 72 60 67 81 86 93 113 128 126 129 115 98 75 301 298 316 341 356 9 345
174 172 167 165 166 168 162 154 159 159 152 151 156 155 164 180 168 159 152 136 132 131 129 113 88 76 81 85 75 73 71 80 127 149 152 202 228 243 251 356 4 8 276
173 172 170 168 167 161 159 166 166 158 161 163 166 168 168 191 176 160 149 131 126 129 137 140 131 108 112 119 99 77 57 35 49 126 171 212 225 226 201 199 207 283 302
179 180 178 172 168 165 171 175 169 161 166 168 165 168 173 193 179 162 147 132 131 137 144 148 156 162 169 132 115 103 60 3 24 67 90 55 16 41 130 107 70 56 344
190 184 176 173 172 176 179 172 162 163 170 161 160 173 178 187 185 173 158 142 146 156 149 185 201 188 179 148 140 142 150 275 351 14 18 13 14 15 37 109 164 150 212
178 167 169 175 178 175 168 162 155 153 150 156 163 170 181 193 195 186 174 159 168 169 181 211 234 211 186 167 158 173 204 192 152 84 13 359 2 7 3 3 181 173 182
159 165 171 174 175 167 159 158 153 151 153 163 164 178 205 211 201 200 190 185 175 168 191 204 211 203 188 175 176 195 186 136 107 80 31 343 334 327 320 320 298 233 221
158 168 170 166 166 160 162 161 155 159 163 174 176 193 211 208 216 210 203 195 185 177 192 190 188 185 172 175 201 177 145 127 126 138 252 266 264 275 298 316 327 317 294
164 168 165 164 163 162 164 166 168 174 176 181 189 199 204 201 208 205 200 195 190 188 184 178 169 158 152 172 148 117 154 177 179 204 234 257 279 292 296 289 299 327 327
161 163 166 167 167 169 174 183 185 192 187 184 195 191 187 208 218 198 183 190 187 182 150 122 122 145 191 229 241 241 220 198 209 215 218 240 260 267 270 255 236 245 265
156 164 168 167 167 168 168 170 208 198 201 202 196 187 205 210 197 191 196 196 188 169 149 163 191 200 210 216 221 232 227 222 221 214 217 225 236 246 259 250 223 227 253
166 170 168 167 168 170 172 177 186 216 209 210 209 205 206 202 197 192 193 191 184 168 168 191 203 210 216 215 215 217 224 223 212 213 222 228 231 237 240 247 244 245 256
163 167 168 174 174 175 180 183 181 178 191 230 230 218 212 209 205 199 186 161 174 183 197 205 212 214 214 215 216 218 225 225 217 222 226 229 227 228 236 243 243 243 256
160 166 168 168 169 171 171 170 174 180 187 195 196 225 211 204 204 201 176 177 193 204 210 217 217 215 216 217 219 219 220 224 224 221 227 228 225 222 235 241 245 250 252
163 163 159 160 158 158 161 167 175 181 187 192 202 205 175 159 186 199 197 202 207 214 213 217 220 219 219 219 219 219 223 229 229 228 231 230 226 223 235 241 241 245 247
150 156 151 151 166 172 174 181 184 185 195 205 216 204 182 186 201 205 205 210 214 218 219 218 220 219 220 218 217 219 223 230 229 228 229 230 226 228 231 234 240 242 250
143 147 155 165 171 174 178 181 181 188 199 207 220 211 200 198 206 211 214 219 220 220 216 211 218 220 216 213 213 216 222 229 228 224 227 228 228 231 231 233 238 244 250
137 141 142 148 157 163 163 169 178 187 198 205 203 198 197 209 215 219 224 227 224 223 216 209 219 228 226 221 216 212 219 226 224 216 217 224 228 231 231 236 241 247 252
139 148 151 152 149 160 171 178 183 189 195 202 204 207 212 217 223 229 231 231 228 227 220 216 223 230 230 227 223 221 225 228 221 217 214 221 229 234 234 240 245 250 255
132 142 150 158 164 174 180 184 190 194 198 205 209 214 221 227 233 237 237 234 233 236 235 230 230 232 233 231 230 230 230 229 229 224 216 219 230 236 240 246 251 255 256
118 129 139 147 160 173 181 190 197 200 206 212 211 211 214 223 233 240 238 232 235 241 244 239 235 233 235 235 236 238 241 242 242 237 224 223 231 239 241 249 254 255 258